Location: Newark
(34.1333°N, 7.9667°W)
Time: 23:59:19
(UTC+00:00)

LightSail 2 - Visible Passes

Search period start: 09 May 2021 00:00
Search period end: 19 May 2021 00:00
Orbit: 683 x 704 km, 24.0° (Epoch: 09 May)

Date Brightness Start Highest point End Pass type
(mag) Time Alt. Az. Time Alt. Az. Time Alt. Az.
09 May 6.4 03:50:37 23° S 03:50:45 23° S 03:54:38 10° ESE visible
10 May 7.6 02:50:16 10° ESE 02:50:16 10° ESE 02:50:22 10° ESE visible
10 May 6.3 04:28:49 17° SW 04:31:15 25° S 04:35:18 10° SE visible
11 May 6.6 03:28:31 22° SSE 03:28:31 22° SSE 03:31:16 10° ESE visible
12 May 6.2 04:06:49 23° SSW 04:07:45 24° S 04:11:45 10° SE visible
13 May 7.1 03:06:39 15° SE 03:06:39 15° SE 03:07:49 10° SE visible
13 May 6.6 04:45:13 12° SW 04:48:14 19° SSW 04:51:44 10° SSE visible
14 May 6.5 03:45:09 21° S 03:45:09 21° S 03:48:06 10° SE visible
15 May 6.7 04:23:45 15° SSW 04:24:42 16° SSW 04:27:42 10° SSE visible
16 May 7.3 03:23:55 11° SSE 03:23:55 11° SSE 03:24:17 10° SE visible
17 May 7.2 04:02:49 11° S 04:02:49 11° S 04:03:12 10° S visible
